Powrót do katalogu

ONEWEB-0366

AktywnyŁącznośćPO
NORAD 49292·PAYLOAD·🇬🇧 United Kingdom

Wystrzelony Oct 14, 2021 z Vostochny Cosmodrome

Loading…

Następne Przeloty (najbliższe 24 godziny)

TLE

ŚwieżeSource: CelesTrak SupGP

Epoka: Sep 14, 2026, 06:57 UTC

1 49292C 21090P   26257.28977269 -.00000091  00000+0 -24542-3 0  2578
2 49292  87.8897 271.9379 0001935  93.4353  18.4138 13.14502848    10

Śledź ONEWEB-0366 w czasie rzeczywistym z AllMySat

Download on the App Store